1st Responders/1st Detectors/Storm Spotters Weather Summary for Elliott County, KY

Forecast Maps


Reg. NEXRAD Animation


National Fire Danger: Day 1 & 2 Map

Current NWS Watch/Warnings

SPC Convective Day 1 Outlook


Day 2 Outlook

(Click images to enlarge|Page will refresh every 5 minutes)
UK Ag. Weather Center Desktop Severe Weather Service[HERE]
Elliott County, KY Hazardous Weather Outlook Webcast
(9 AM to 9 PM Mon-Fri)
[Fast]
[Dial-up]


UKAWC 1st Detectors/1st Responders Precision Weather Forecast For ELLIOTT County, Kentucky
(based on the NWS County Digital Forecast)

ISSUED AT 06:00 UTC ON SUNDAY FEB 18 2018
DAY SUNDAY
EDT 3HR 3A 4A 5A 6A 7A 8A 9A 10A 11A NOON 1P 2P 3P 4P 5P 6P 7P
MAX/MIN -- -- -- -- -- 32° -- -- -- -- -- -- -- -- -- -- 52°
TEMP 38° 36° 34° 34° 34° 32° 34° 36° 38° 40° 43° 47° 49° 50° 52° 50° 49°
SKY COVER 89% 86% 84% 72% 60% 48% 47% 47% 47% 39% 32% 24% 20% 17% 13% 16% 18%
Clouds
DEW PT 36° 34° 32° 31° 31° 31° 31° 31° 31° 31° 31° 31° 31° 31° 31° 31° 31°
RH 92% 92% 92% 88% 88% 92% 88% 81% 78% 73% 65% 55% 52% 48% 46% 48% 51%
POP 12HR -- -- -- -- -- 25% -- -- -- -- -- -- -- -- -- -- --
RAIN/SNOW (liq.equ) -- -- -- -- -- 0.00in -- -- -- -- -- 0.00in -- -- -- -- --
SNOWFALL -- -- -- -- -- 0in -- -- -- -- -- 0in -- -- -- -- --
WIND SPEED(MPH) 6 6 6 5 5 5 2 2 2 2 2 5 5 5 5 5 5
WIND Gust(MPH) 7 7 7 7 7 7 6 5 5 6 6 7 7 7 7 7 7
WIND DIR NW W W W NW NW NW W S SE SE SE SE SE SE SE E
DEW Mod Dew Patchy Frost Frost Frost Frost Frost Frost Frost Frost Frost -- -- -- -- -- -- --
HeatIndex 33 32 29 31 29 28 31 33 35 37 41 47 49 50 52 50 49
Rain Showers -- -- -- -- -- -- -- -- -- -- -- -- -- -- -- -- --
Thunder Storm -- -- -- -- -- -- -- -- -- -- -- -- -- -- -- -- --
Fog Patchy Patchy Patchy Patchy Patchy -- -- -- -- -- -- -- -- -- -- -- --
WIND CHILL 34° 31° 29° 30° 30° 28° -- -- -- -- -- -- -- -- -- -- --
SPRAY COND
DRY COND
LIVESTOCK COLDSTRESS



DAY MONDAY TUESDAY WEDNESDAY THURSDAY FRIDAY SATURDAY
EDT 6HR 8P 9P 10P 11P MIDN 1A 2A 3A 4A 5A 6A 7A 8A 9A 10A 11A NOON 1P 2P 5P 8P 11P 2A 5A 8A 11A 2P 5P 8P 2A 8A 2P 8P 2A 8A 2P 8P 2A 8A 2P 8P 2A 8A 2P 8P
MAX/MIN -- -- -- -- -- -- -- -- -- -- -- -- 40° -- -- -- -- -- -- 72° -- -- -- -- 59° -- -- 79° -- -- 61° 70° -- -- 45° 56° -- -- 43° 63° -- -- 54° 65° --
TEMP 47° 43° 41° 40° 41° 43° 45° 45° 47° 49° 49° 49° 50° 54° 56° 58° 63° 65° 70° 72° 67° 63° 61° 61° 59° 67° 76° 79° 74° 65° 63° 70° 58° 49° 45° 56° 50° 45° 45° 61° 61° 59° 54° 65° 59°
SKY COVER 21% 25% 29% 33% 50% 67% 84% 85% 87% 88% 88% 89% 89% 89% 90% 90% 91% 92% 93% 75% 69% 48% 70% 63% 83% 61% 50% 44% 45% 64% 75% 83% 91% 98% 96% 95% 87% 76% 82% 85% 77% 83% 89% 88% 92%
Clouds
DEW PT 31° 31° 32° 34° 34° 36° 38° 40° 41° 43° 45° 47° 47° 49° 50° 52° 54° 54° 56° 56° 56° 56° 54° 54° 56° 58° 58° 58° 56° 56° 56° 58° 49° 45° 43° 47° 41° 41° 43° 52° 54° 54° 52° 54° 52°
RH 56% 62% 70% 76% 75% 79% 79% 82% 79% 83% 86% 89% 88% 80% 83% 77% 72% 67% 63% 57% 67% 77% 78% 77% 86% 73% 54% 47% 51% 72% 80% 63% 74% 86% 92% 71% 71% 85% 88% 72% 75% 80% 93% 67% 75%
POP 12HR 3% -- -- -- -- -- -- -- -- -- -- -- 54% -- -- -- -- -- -- -- 57% -- -- -- 1% -- -- -- 0% -- 15% -- 79% -- 86% -- 62% -- 11% -- 43% -- 37% -- 51%
RAIN/SNOW (liq.equ) 0.00in -- -- -- -- -- 0.00in -- -- -- -- -- 0.06in -- -- -- -- -- 0.05in -- 0.00in -- 0.00in -- 0.00in -- 0.00in -- 0.00in -- -- -- -- -- -- -- -- -- -- -- -- -- -- -- --
SNOWFALL 0in -- -- -- -- -- 0in -- -- -- -- -- 0in -- -- -- -- -- 0in -- 0in -- 0in -- 0in -- 0in -- 0in -- -- -- -- -- -- -- -- -- -- -- -- -- -- -- --
WIND SPEED(MPH) 5 5 5 5 6 6 7 7 7 7 7 7 7 7 7 8 8 9 9 9 7 7 7 8 7 9 13 9 7 8 8 8 7 5 7 6 6 5 5 5 6 7 9 8 7
WIND DIR E SE SE SE SE S S S S S S S S S S S S S S S S S S S S S SW S S S SW W N N N N NE NE E S S SW SW W SW
HeatIndex 47 41 39 38 38 39 41 45 47 49 49 49 50 54 56 58 63 65 70 72 67 63 61 61 59 67 76 80 74 65 63 70 58 49 45 56 50 45 45 61 61 59 54 65 59
Rain Showers -- -- -- -- -- -- Slight Chance Chance Chance Chance Chance Chance Likely Chance Chance Chance Chance Slight Chance -- -- -- -- -- -- -- -- -- -- -- -- Slight Chance Likely Definite Definite Likely Chance -- -- -- Chance Chance Chance Chance Chance --
Thunder Storm -- -- -- -- -- -- -- -- -- -- -- -- -- -- -- -- -- -- -- -- -- -- -- -- -- -- -- -- -- -- -- Chance Slight Chance -- -- -- -- -- -- -- -- -- -- -- --
Fog -- -- -- -- -- -- -- -- -- -- -- -- -- -- -- -- -- -- -- -- -- -- -- -- -- -- -- -- -- -- -- -- -- -- -- -- -- -- -- -- -- -- -- -- --
WIND CHILL -- 40° 38° 37° 37° 39° 41° 41° -- -- -- -- -- -- -- -- -- -- -- -- -- -- -- -- -- -- -- -- -- -- -- -- -- -- 41° -- -- 43° 43° -- -- -- -- -- --
SPRAY COND
DRY COND
LIVESTOCK COLDSTRESS

Click on individual weather variable above in left-hand column (ie., TEMP, RH, QPF 12HR) to view state forecast maps






NWS 48 Hr. Forecast Maps,

Regional Hourly Observations For ELLIOTT County, Kentucky
Issued at 100 AM EST SUN FEB 18 2018
NORTHEAST KENTUCKY
  
CITY           SKY/WX    TMP DP  RH WIND       PRES   REMARKS
LEXINGTON      MOCLDY    38  33  82 W9        30.23R WCI  31          
COVINGTON      CLOUDY    36  34  92 W13       30.20R WCI  27          
FRANKFORT      FAIR      38  32  79 W5        30.21R WCI  34          


Current NOWCAST not available:
Nowcasts are not issued routinely during fair weather. Only when
precipitation or other significant weather is occuring in this county will these
forecasts be issued. Currently, there is no short term forecast in effect.


Fire Weather Forecast For ELLIOTT County, KY
Provided by the National Weather Service:

Issued at: Sun Feb 18 01:05:01 EST 2018

Clay City, Stanton, Frenchburg, Brodhead, Mount Vernon, McKee, 
Annville, Burnside, Somerset, Monticello, Sandy Hook, 
West Liberty, Paintsville, Campton, Salyersville, Beattyville, 
Jackson, and Booneville
422 PM EST Sat Feb 17 2018

.TONIGHT...
Sky/weather.........Mostly cloudy. A chance of rain showers in 
                    the evening. Patchy fog. 
Min Temperature.....Around 33. 
   24 hr trend......1 degree warmer. 
Max Humidity........99 percent. 
   24 hr trend......3 percent wetter. 
Wind (20 ft)........Northwest winds 5 to 10 mph. 
LAL.................1. 
Haines Index........3 or very low potential for large plume 
                    dominated fire growth. 
ADI.................24. 
LVORI...............6. 
Prob of precip......50 percent. 
QPF (inches)........0.08 inches. 

.SUNDAY...
Sky/weather.........Mostly sunny. 
Max Temperature.....52-57. 
   24 hr trend......12 degrees warmer. 
Min Humidity........39-47 percent. 
   24 hr trend......42 percent drier. 
Wind (20 ft)........North winds around 5 mph shifting to the 
                    southeast in the afternoon. 
LAL.................1. 
Haines Index........4 or low potential for large plume dominated 
                    fire growth. 
Mixing Height.......2400 ft agl. 
Transport Winds.....North around 5 mph shifting to the southeast in 
                    the afternoon. 
Dispersion Index....20. 
Vent Rate...........Poor (20000 knot-ft). 
ADI.................26. 
LVORI...............4. 
Prob of precip......0 percent. 
QPF (inches)........None. 

.SUNDAY NIGHT...
Sky/weather.........Partly cloudy then becoming cloudy. A slight 
                    chance of rain showers in the evening, then a 
                    chance of rain showers. 
Min Temperature.....43-48. 
   24 hr trend......10 degrees warmer. 
Max Humidity........81-91 percent. 
   24 hr trend......16 percent drier. 
Wind (20 ft)........South winds 5 to 10 mph. 
LAL.................1. 
Haines Index........4 or low potential for large plume dominated 
                    fire growth. 
ADI.................10. 
LVORI...............4. 
Prob of precip......50 percent. 
QPF (inches)........0.06 inches. 

.WASHINGTONS BIRTHDAY...
Sky/weather.........Mostly cloudy. A chance of rain showers in the 
                    morning. 
Max Temperature.....Around 72. 
   24 hr trend......19 degrees warmer. 
Min Humidity........54-62 percent. 
   24 hr trend......16 percent wetter. 
Wind (20 ft)........South winds 5 to 15 mph. 
LAL.................1. 
Haines Index........3 or very low potential for large plume 
                    dominated fire growth. 
Mixing Height.......3200 ft agl. 
Transport Winds.....South 10 to 20 mph shifting to the southwest 
                    around 25 mph early in the afternoon. 
Dispersion Index....71. 
Vent Rate...........Good (71100 knot-ft). 
ADI.................23 increasing to 63 in the afternoon. 
LVORI...............4. 
Prob of precip......50 percent. 
QPF (inches)........0.01 - 0.12 inches. 

SPC's Fire Weather Web Tool (Excellent!), SPC's Fire Weather Outlooks, NWS Fire Weather WEB, Fire Danger Class Map,
Keetch-Byram Drought Index, ROMAN Web, Haines Index ,
WFAS's 10-hr Dead Fuel Moist., WFAS's 100-hr Dead Fuel Moist., Probablity of Ignition, Visual blackness Map, Palmer Drought Index, HPC's Rainfall Forecast Maps


Hazardous Weather Outlook For ELLIOTT County, Kentucky
733 PM EST Sat Feb 17 2018

 DAY ONE  Tonight.

Significant rises along portions of the Kentucky, Red, and 
Cumberland River basins are expected tonight.

 DAYS TWO THROUGH SEVEN  Sunday through Friday.

High water is expected along portions of the Kentucky, Red, and 
Cumberland River basins Sunday into Monday. 

Thunderstorms are possible Wednesday into Wednesday evening. 

 SPOTTER INFORMATION STATEMENT  

Spotter activation is not anticipated at this time.

Latest ELLIOTT County, Kentucky Watches, Warnings and Advisories.
Additional Drought Info.: UKAWC Drought Page, Kentucky Drought Watch


7-Day Forecast For ELLIOTT County, KY

TONIGHT
Cloudy. Areas of drizzle in the evening. Patchy fog through the night. Lows in the lower 30s. West winds around 10 mph.

SUNDAY
Mostly sunny. Highs in the lower 50s. Light winds.

SUNDAY NIGHT
Partly cloudy in the evening, then mostly cloudy with a chance of rain showers late. Mostly cloudy with rain showers likely near dawn. Lows in the lower 40s. Light winds. Chance of rain 60 percent.

WASHINGTONS BIRTHDAY
Warmer. Mostly cloudy. Showers likely in the morning. Highs in the lower 70s. South winds around 10 mph. Chance of rain 60 percent.

MONDAY NIGHT
Mostly cloudy. Lows around 60. South winds around 10 mph.

TUESDAY
Hot. Partly sunny. Highs around 80.

TUESDAY NIGHT
Mostly cloudy. Lows in the lower 60s.

WEDNESDAY
Showers and a chance of thunderstorms. Highs around 70. Chance of rain 80 percent.

WEDNESDAY NIGHT
Showers and a slight chance of thunderstorms. Lows in the mid 40s. Chance of rain 90 percent.

THURSDAY
Cloudy with showers likely. Highs in the mid 50s. Chance of rain 60 percent.

THURSDAY NIGHT
Mostly cloudy. Lows in the mid 40s.

FRIDAY
Mostly cloudy with a 50 percent chance of showers. Highs in the mid 60s.

FRIDAY NIGHT
Mostly cloudy with a 40 percent chance of showers. Lows in the lower 50s.

SATURDAY
Cloudy with a 50 percent chance of showers. Highs in the mid 60s.

Ag Weather Center, Department of Biosystems & Agricultural Engineering, University of Kentucky